Location: Moscow Pond
(43.6842°N, 73.2366°W)
Time: 00:31:57
(UTC+00:00)

COSMO-SKYMED 1 - Pass Details

Date: 08 November 2025
Orbit: 579 x 581 km, 97.9° (Epoch: 05 December)

Event Time Altitude Azimuth Distance (km) Brightness Sun altitude
Rises 09:40:00 0° 145° (SE) 2,793 6.5 -21.6°
Reaches altitude 10° 09:42:16 10° 136° (SE) 1,898 5.7 -21.2°
Maximum altitude 09:46:02 36° 70° (ENE) 939 4.0 -20.5°
Drops below altitude 10° 09:49:49 10° 4° (N) 1,910 5.1 -19.8°
Sets 09:52:06 0° 356° (N) 2,814 5.8 -19.4°
